RYR5JZ ESSA-GMMX

Flight info

Callsign RYR5JZ
Flight time 5h 27m
Altitude 34000
Route ARS N623 BEDLA N866 NEGIL M852 ALS N872 CIV Y50 REM B3 VATRI G40 TRO B373 LUREN T11 OSKIN R11 MOTAL J18 VEROS G54 CTX G28 LMG R10 BTZ R299 DONOS M299 PPN N10 CJN L27 BLN N869 MGA M985 PIMOS N869 GALTO UN869 SLK UZ801 VALBA UG850 OBOGA OBOG3A LANBA
Aircraft B38M/M-SDE1FGHILORVWXY/HB1

Departure

Time 2026-05-05 02:17
Airport Stockholm-Arlanda Airport (ESSA)

Arrival

Time 2026-05-05 07:44
Airport Marrakesh Menara Airport (GMMX)
Time Latitude Longitude Altitude Speed Heading
2026-05-05 01:29 59.64876 17.92793 140 ft 0 kts 168°
2026-05-05 02:00 59.64877 17.92793 140 ft 2 kts 168°
2026-05-05 02:00 59.64895 17.92786 140 ft 3 kts 186°
2026-05-05 02:00 59.64911 17.92803 140 ft 3 kts 249°
2026-05-05 02:01 59.64912 17.92810 140 ft 0 kts 249°
2026-05-05 02:02 59.64911 17.92801 140 ft 1 kts 263°
2026-05-05 02:03 59.64910 17.92769 140 ft 3 kts 266°
2026-05-05 02:03 59.64908 17.92715 140 ft 5 kts 266°
2026-05-05 02:03 59.64908 17.92645 140 ft 6 kts 271°
2026-05-05 02:03 59.64908 17.92631 140 ft 1 kts 271°
2026-05-05 02:04 59.64908 17.92596 140 ft 6 kts 269°
2026-05-05 02:04 59.64907 17.92471 140 ft 11 kts 270°
2026-05-05 02:04 59.64927 17.92328 140 ft 11 kts 317°
2026-05-05 02:04 59.65004 17.92313 140 ft 12 kts
2026-05-05 02:05 59.65088 17.92343 140 ft 13 kts 11°
2026-05-05 02:05 59.65154 17.92367 140 ft 8 kts 11°
2026-05-05 02:05 59.65210 17.92391 140 ft 9 kts 14°
2026-05-05 02:05 59.65270 17.92433 140 ft 10 kts 24°
2026-05-05 02:06 59.65331 17.92503 140 ft 11 kts 34°
2026-05-05 02:06 59.65390 17.92604 140 ft 12 kts 46°
2026-05-05 02:06 59.65439 17.92744 140 ft 13 kts 62°
2026-05-05 02:06 59.65475 17.92913 140 ft 14 kts 70°
2026-05-05 02:07 59.65505 17.93101 140 ft 15 kts 75°
2026-05-05 02:07 59.65530 17.93303 140 ft 16 kts 76°
2026-05-05 02:07 59.65557 17.93522 140 ft 17 kts 76°
2026-05-05 02:07 59.65576 17.93660 140 ft 8 kts 76°
2026-05-05 02:08 59.65590 17.93771 140 ft 9 kts 75°
2026-05-05 02:08 59.65606 17.93899 140 ft 10 kts 75°
2026-05-05 02:08 59.65625 17.94043 140 ft 11 kts 76°
2026-05-05 02:08 59.65645 17.94203 140 ft 13 kts 76°
2026-05-05 02:09 59.65666 17.94376 140 ft 13 kts 76°
2026-05-05 02:09 59.65691 17.94558 140 ft 14 kts 74°
2026-05-05 02:09 59.65704 17.94643 140 ft 7 kts 63°
2026-05-05 02:09 59.65742 17.94697 140 ft 7 kts
2026-05-05 02:10 59.65792 17.94735 140 ft 8 kts 47°
2026-05-05 02:10 59.65815 17.94846 140 ft 9 kts 74°
2026-05-05 02:10 59.65831 17.94976 140 ft 10 kts 76°
2026-05-05 02:10 59.65849 17.95120 140 ft 11 kts 75°
2026-05-05 02:11 59.65870 17.95277 140 ft 12 kts 75°
2026-05-05 02:11 59.65889 17.95450 140 ft 13 kts 77°
2026-05-05 02:11 59.65910 17.95600 140 ft 10 kts 75°
2026-05-05 02:11 59.65928 17.95741 140 ft 11 kts 77°
2026-05-05 02:12 59.65948 17.95895 140 ft 12 kts 75°
2026-05-05 02:12 59.65993 17.96251 140 ft 14 kts 76°
2026-05-05 02:12 59.66018 17.96443 140 ft 7 kts 76°
2026-05-05 02:13 59.66030 17.96541 140 ft 8 kts 76°
2026-05-05 02:13 59.66045 17.96657 140 ft 9 kts 76°
2026-05-05 02:13 59.66062 17.96790 140 ft 11 kts 76°
2026-05-05 02:13 59.66081 17.96939 140 ft 12 kts 76°
2026-05-05 02:14 59.66088 17.96998 140 ft 6 kts 76°
2026-05-05 02:14 59.66104 17.97126 140 ft 8 kts 76°
2026-05-05 02:14 59.66119 17.97244 140 ft 9 kts 75°
2026-05-05 02:14 59.66136 17.97377 140 ft 11 kts 75°
2026-05-05 02:15 59.66155 17.97526 140 ft 12 kts 76°
2026-05-05 02:15 59.66183 17.97685 140 ft 13 kts 58°
2026-05-05 02:15 59.66219 17.97779 140 ft 13 kts 45°
2026-05-05 02:15 59.66292 17.97896 140 ft 13 kts 13°
2026-05-05 02:16 59.66371 17.97815 138 ft 15 kts 279°
2026-05-05 02:16 59.66334 17.97496 140 ft 52 kts 256°
2026-05-05 02:16 59.66107 17.95711 142 ft 146 kts 255°
2026-05-05 02:16 59.65921 17.94247 257 ft 174 kts 256°
2026-05-05 02:17 59.65616 17.91765 906 ft 190 kts 256°
2026-05-05 02:17 59.65353 17.89318 2212 ft 182 kts 266°
2026-05-05 02:17 59.65353 17.86699 2671 ft 203 kts 275°
2026-05-05 02:17 59.65436 17.83778 3224 ft 222 kts 274°
2026-05-05 02:18 59.65517 17.80618 3865 ft 237 kts 273°
2026-05-05 02:18 59.65594 17.77322 4807 ft 239 kts 272°
2026-05-05 02:18 59.65667 17.74049 5844 ft 239 kts 271°
2026-05-05 02:18 59.65738 17.70753 6821 ft 238 kts 271°
2026-05-05 02:19 59.65807 17.67481 7771 ft 239 kts 271°
2026-05-05 02:19 59.65784 17.64211 8720 ft 237 kts 262°
2026-05-05 02:19 59.65559 17.60986 9656 ft 237 kts 262°
2026-05-05 02:19 59.65334 17.57749 10250 ft 249 kts 262°
2026-05-05 02:20 59.65091 17.54236 10611 ft 265 kts 262°
2026-05-05 02:20 59.64834 17.50533 11096 ft 278 kts 261°
2026-05-05 02:20 59.64568 17.46701 11682 ft 285 kts 261°
2026-05-05 02:20 59.64297 17.42828 12445 ft 287 kts 261°
2026-05-05 02:21 59.64023 17.38907 13207 ft 289 kts 261°
2026-05-05 02:21 59.63745 17.34951 13874 ft 291 kts 261°
2026-05-05 02:21 59.63464 17.30975 14509 ft 294 kts 261°
2026-05-05 02:21 59.63179 17.26960 15115 ft 296 kts 261°
2026-05-05 02:22 59.62894 17.22966 15700 ft 299 kts 261°
2026-05-05 02:22 59.62602 17.18879 16332 ft 301 kts 261°
2026-05-05 02:22 59.62306 17.14769 16871 ft 303 kts 261°
2026-05-05 02:22 59.62005 17.10605 17375 ft 308 kts 261°
2026-05-05 02:23 59.61700 17.06404 17942 ft 310 kts 261°
2026-05-05 02:23 59.61391 17.02170 18406 ft 313 kts 261°
2026-05-05 02:23 59.61078 16.97894 18880 ft 315 kts 261°
2026-05-05 02:23 59.60764 16.93620 19344 ft 318 kts 261°
2026-05-05 02:24 59.60443 16.89285 19811 ft 320 kts 261°
2026-05-05 02:24 59.60125 16.85007 20291 ft 322 kts 261°
2026-05-05 02:24 59.59801 16.80664 20731 ft 324 kts 261°
2026-05-05 02:24 59.59470 16.76248 21176 ft 327 kts 261°
2026-05-05 02:25 59.59140 16.71845 21613 ft 329 kts 261°
2026-05-05 02:25 59.58809 16.67364 22048 ft 331 kts 263°
2026-05-05 02:25 59.58950 16.62800 22512 ft 336 kts 277°
2026-05-05 02:25 59.59368 16.58339 22917 ft 339 kts 276°
2026-05-05 02:26 59.59796 16.53804 23326 ft 342 kts 277°
2026-05-05 02:26 59.60245 16.49180 23717 ft 344 kts 277°
2026-05-05 02:26 59.60695 16.44614 24101 ft 345 kts 277°
2026-05-05 02:26 59.61158 16.39956 24461 ft 348 kts 277°
2026-05-05 02:27 59.61626 16.35255 24819 ft 350 kts 277°
2026-05-05 02:27 59.62097 16.30513 25183 ft 352 kts 277°
2026-05-05 02:27 59.62360 16.25732 25517 ft 349 kts 264°
2026-05-05 02:27 59.61824 16.21065 25828 ft 352 kts 248°
2026-05-05 02:28 59.60625 16.16828 26177 ft 356 kts 241°
2026-05-05 02:28 59.59281 16.12706 26496 ft 359 kts 240°
2026-05-05 02:28 59.57904 16.08650 26835 ft 361 kts 239°
2026-05-05 02:28 59.56484 16.04560 27165 ft 363 kts 239°
2026-05-05 02:29 59.55036 16.00448 27498 ft 366 kts 239°
2026-05-05 02:29 59.53581 15.96355 27831 ft 368 kts 238°
2026-05-05 02:29 59.52105 15.92225 28139 ft 370 kts 238°
2026-05-05 02:29 59.50616 15.88075 28453 ft 372 kts 238°
2026-05-05 02:30 59.49117 15.83909 28691 ft 374 kts 238°
2026-05-05 02:30 59.47608 15.79723 28970 ft 376 kts 238°
2026-05-05 02:30 59.46092 15.75523 29276 ft 378 kts 238°
2026-05-05 02:30 59.44602 15.71404 29597 ft 380 kts 238°
2026-05-05 02:31 59.43062 15.67155 29847 ft 383 kts 238°
2026-05-05 02:31 59.41512 15.62886 30113 ft 383 kts 238°
2026-05-05 02:31 59.39968 15.58639 30435 ft 383 kts 238°
2026-05-05 02:31 59.38438 15.54441 30750 ft 382 kts 238°
2026-05-05 02:32 59.36896 15.50216 31070 ft 382 kts 238°
2026-05-05 02:32 59.35352 15.45992 31375 ft 382 kts 238°
2026-05-05 02:32 59.33825 15.41825 31681 ft 381 kts 237°
2026-05-05 02:32 59.32280 15.37612 31984 ft 381 kts 237°
2026-05-05 02:33 59.30729 15.33394 32282 ft 381 kts 237°
2026-05-05 02:33 59.29184 15.29199 32578 ft 380 kts 237°
2026-05-05 02:33 59.27639 15.25010 32794 ft 380 kts 237°
2026-05-05 02:33 59.26093 15.20827 33111 ft 378 kts 237°
2026-05-05 02:34 59.24561 15.16689 33416 ft 377 kts 237°
2026-05-05 02:34 59.23020 15.12535 33686 ft 377 kts 237°
2026-05-05 02:34 59.21500 15.08438 33792 ft 378 kts 237°
2026-05-05 02:35 59.18421 15.00172 33777 ft 375 kts 237°
2026-05-05 02:35 59.15338 14.91929 33881 ft 376 kts 237°
2026-05-05 02:35 59.13799 14.87820 34065 ft 377 kts 237°
2026-05-05 02:36 59.12247 14.83689 34186 ft 380 kts 237°
2026-05-05 02:36 59.09107 14.75347 34438 ft 384 kts 237°
2026-05-05 02:36 59.07522 14.71146 34583 ft 386 kts 237°
2026-05-05 02:37 59.05957 14.67006 34748 ft 387 kts 237°
2026-05-05 02:37 59.04362 14.62796 34875 ft 387 kts 237°
2026-05-05 02:37 59.02762 14.58580 35080 ft 387 kts 237°
2026-05-05 02:37 59.01164 14.54374 35246 ft 388 kts 236°
2026-05-05 02:38 58.99559 14.50159 35417 ft 388 kts 236°
2026-05-05 02:38 58.97401 14.44506 35651 ft 389 kts 236°
2026-05-05 02:38 58.95810 14.40343 35774 ft 389 kts 236°
2026-05-05 02:39 58.94217 14.36185 35800 ft 390 kts 236°
2026-05-05 02:39 58.90983 14.27763 35810 ft 389 kts 236°
2026-05-05 02:40 58.87749 14.19372 35799 ft 389 kts 236°
2026-05-05 02:40 58.84512 14.11005 35806 ft 389 kts 236°
2026-05-05 02:41 58.81287 14.02695 35794 ft 388 kts 236°
2026-05-05 02:41 58.78047 13.94379 35812 ft 390 kts 236°
2026-05-05 02:42 58.74988 13.86551 35806 ft 390 kts 236°
2026-05-05 02:42 58.71786 13.78387 35818 ft 390 kts 236°
2026-05-05 02:43 58.68608 13.70309 35818 ft 390 kts 236°
2026-05-05 02:43 58.65346 13.62048 35821 ft 390 kts 236°
2026-05-05 02:44 58.62068 13.53777 35827 ft 390 kts 236°
2026-05-05 02:44 58.58775 13.45495 35815 ft 390 kts 236°
2026-05-05 02:45 58.55477 13.37227 35834 ft 390 kts 235°
2026-05-05 02:45 58.52193 13.29026 35839 ft 390 kts 235°
2026-05-05 02:46 58.48895 13.20822 35837 ft 390 kts 235°
2026-05-05 02:46 58.45573 13.12583 35846 ft 392 kts 235°
2026-05-05 02:47 58.42233 13.04328 35833 ft 393 kts 235°
2026-05-05 02:47 58.38890 12.96097 35833 ft 393 kts 235°
2026-05-05 02:48 58.35539 12.87873 35835 ft 392 kts 235°
2026-05-05 02:48 58.32218 12.79750 35854 ft 393 kts 235°
2026-05-05 02:49 58.28858 12.71560 35863 ft 392 kts 235°
2026-05-05 02:49 58.25356 12.63624 35837 ft 397 kts 223°
2026-05-05 02:50 58.20523 12.58320 35828 ft 405 kts 213°
2026-05-05 02:50 58.15562 12.53473 35859 ft 406 kts 212°
2026-05-05 02:51 58.10510 12.48668 35861 ft 406 kts 212°
2026-05-05 02:51 58.05452 12.43902 35856 ft 406 kts 212°
2026-05-05 02:52 58.00409 12.39168 35858 ft 406 kts 212°
2026-05-05 02:52 57.95390 12.34472 35862 ft 406 kts 212°
2026-05-05 02:53 57.90385 12.29803 35859 ft 406 kts 212°
2026-05-05 02:53 57.85355 12.25126 35852 ft 408 kts 212°
2026-05-05 02:54 57.80253 12.20395 35872 ft 409 kts 212°
2026-05-05 02:54 57.75147 12.15678 35884 ft 409 kts 212°
2026-05-05 02:55 57.70086 12.11019 35883 ft 409 kts 212°
2026-05-05 02:55 57.64980 12.06332 35880 ft 409 kts 212°
2026-05-05 02:56 57.59871 12.01657 35858 ft 410 kts 211°
2026-05-05 02:56 57.54705 11.97096 35885 ft 412 kts 208°
2026-05-05 02:57 57.49481 11.92883 35894 ft 412 kts 209°
2026-05-05 02:57 57.44240 11.88628 35894 ft 412 kts 209°
2026-05-05 02:58 57.38978 11.84403 35897 ft 412 kts 209°
2026-05-05 02:58 57.33712 11.80197 35885 ft 413 kts 208°
2026-05-05 02:59 57.28413 11.75977 35899 ft 415 kts 208°
2026-05-05 02:59 57.23168 11.71812 35906 ft 414 kts 208°
2026-05-05 03:00 57.17873 11.67621 35909 ft 414 kts 208°
2026-05-05 03:00 57.12571 11.63440 35913 ft 414 kts 208°
2026-05-05 03:01 57.07266 11.59271 35920 ft 416 kts 208°
2026-05-05 03:01 57.01943 11.55101 35921 ft 417 kts 208°
2026-05-05 03:02 56.96665 11.50980 35918 ft 417 kts 207°
2026-05-05 03:02 56.91342 11.46836 35924 ft 417 kts 207°
2026-05-05 03:03 56.85998 11.42688 35920 ft 417 kts 207°
2026-05-05 03:03 56.80658 11.38557 35930 ft 420 kts 207°
2026-05-05 03:04 56.75325 11.34444 35928 ft 420 kts 207°
2026-05-05 03:04 56.69951 11.30312 35932 ft 420 kts 207°
2026-05-05 03:05 56.64562 11.26181 35938 ft 420 kts 207°
2026-05-05 03:05 56.59180 11.22069 35907 ft 420 kts 207°
2026-05-05 03:06 56.53841 11.18002 35948 ft 422 kts 207°
2026-05-05 03:06 56.48432 11.13894 35948 ft 421 kts 207°
2026-05-05 03:07 56.43022 11.09798 35949 ft 421 kts 207°
2026-05-05 03:07 56.37610 11.05714 35952 ft 421 kts 206°
2026-05-05 03:08 56.32249 11.01678 35938 ft 423 kts 206°
2026-05-05 03:08 56.26800 10.97590 35960 ft 425 kts 206°
2026-05-05 03:09 56.21378 10.93536 35953 ft 424 kts 206°
2026-05-05 03:09 56.15925 10.89470 35952 ft 424 kts 206°
2026-05-05 03:10 56.10496 10.85436 35954 ft 424 kts 206°
2026-05-05 03:10 56.05072 10.81418 35953 ft 426 kts 206°
2026-05-05 03:11 55.99596 10.77374 35953 ft 426 kts 206°
2026-05-05 03:11 55.94117 10.73340 35963 ft 426 kts 206°
2026-05-05 03:12 55.88641 10.69321 35962 ft 426 kts 205°
2026-05-05 03:12 55.83208 10.65347 35946 ft 426 kts 205°
2026-05-05 03:13 55.77741 10.61357 35964 ft 426 kts 205°
2026-05-05 03:13 55.72250 10.57364 35964 ft 426 kts 205°
2026-05-05 03:14 55.66767 10.53388 35966 ft 426 kts 205°
2026-05-05 03:14 55.61294 10.49431 35966 ft 426 kts 205°
2026-05-05 03:15 55.55844 10.45504 35971 ft 426 kts 205°
2026-05-05 03:15 55.50351 10.41557 35970 ft 426 kts 205°
2026-05-05 03:16 55.44876 10.37635 35970 ft 426 kts 205°
2026-05-05 03:16 55.39398 10.33722 35970 ft 426 kts 205°
2026-05-05 03:17 55.33947 10.29840 35957 ft 426 kts 205°
2026-05-05 03:17 55.28472 10.25953 35972 ft 424 kts 205°
2026-05-05 03:18 55.23007 10.22085 35976 ft 424 kts 205°
2026-05-05 03:18 55.17550 10.18233 35982 ft 424 kts 205°
2026-05-05 03:19 55.09384 10.12491 35971 ft 423 kts 205°
2026-05-05 03:19 55.03931 10.08670 35983 ft 422 kts 205°
2026-05-05 03:20 54.98481 10.04861 35990 ft 422 kts 205°
2026-05-05 03:20 54.93049 10.01064 35990 ft 421 kts 207°
2026-05-05 03:21 54.90571 9.98472 35954 ft 413 kts 224°
2026-05-05 03:21 54.88588 9.94905 36004 ft 411 kts 229°
2026-05-05 03:21 54.84787 9.87504 35978 ft 413 kts 230°
2026-05-05 03:22 54.81406 9.79530 36009 ft 411 kts 236°
2026-05-05 03:22 54.78075 9.71405 35969 ft 413 kts 235°
2026-05-05 03:23 54.74731 9.63330 35972 ft 414 kts 235°
2026-05-05 03:23 54.71393 9.55300 35968 ft 414 kts 235°
2026-05-05 03:24 54.68032 9.47242 35971 ft 414 kts 235°
2026-05-05 03:24 54.64663 9.39179 35973 ft 414 kts 235°
2026-05-05 03:25 54.61313 9.31127 35974 ft 414 kts 235°
2026-05-05 03:25 54.57974 9.23133 35979 ft 413 kts 235°
2026-05-05 03:26 54.54610 9.15104 35979 ft 414 kts 235°
2026-05-05 03:26 54.51223 9.07045 35978 ft 416 kts 235°
2026-05-05 03:27 54.47832 8.99004 35976 ft 416 kts 234°
2026-05-05 03:27 54.44431 8.90965 35973 ft 416 kts 234°
2026-05-05 03:28 54.41044 8.82986 35968 ft 416 kts 234°
2026-05-05 03:28 54.37630 8.74969 35973 ft 416 kts 234°
2026-05-05 03:29 54.34214 8.66971 35974 ft 416 kts 234°
2026-05-05 03:29 54.30803 8.59011 35971 ft 416 kts 234°
2026-05-05 03:30 54.27397 8.51089 35976 ft 416 kts 234°
2026-05-05 03:30 54.23955 8.43102 35974 ft 418 kts 234°
2026-05-05 03:31 54.20023 8.35822 35977 ft 418 kts 225°
2026-05-05 03:31 54.15820 8.28979 35977 ft 419 kts 224°
2026-05-05 03:32 54.11617 8.22182 35976 ft 419 kts 224°
2026-05-05 03:32 54.07394 8.15363 35977 ft 419 kts 224°
2026-05-05 03:33 54.03158 8.08539 35974 ft 419 kts 224°
2026-05-05 03:33 53.98938 8.01758 35974 ft 419 kts 224°
2026-05-05 03:34 53.94693 7.94963 35983 ft 420 kts 224°
2026-05-05 03:34 53.90459 7.88203 35993 ft 420 kts 224°
2026-05-05 03:35 53.86195 7.81417 35980 ft 420 kts 224°
2026-05-05 03:35 53.81927 7.74643 35979 ft 420 kts 224°
2026-05-05 03:36 53.77667 7.67902 35976 ft 420 kts 224°
2026-05-05 03:36 53.73388 7.61150 35962 ft 421 kts 224°
2026-05-05 03:37 53.69127 7.54447 35971 ft 422 kts 224°
2026-05-05 03:37 53.64827 7.47701 35988 ft 422 kts 224°
2026-05-05 03:38 53.60533 7.40985 35982 ft 422 kts 224°
2026-05-05 03:38 53.56226 7.34269 35983 ft 422 kts 224°
2026-05-05 03:39 53.51951 7.27622 35974 ft 422 kts 224°
2026-05-05 03:39 53.47622 7.20910 35986 ft 424 kts 223°
2026-05-05 03:40 53.43304 7.14234 35994 ft 424 kts 223°
2026-05-05 03:40 53.38966 7.07544 35993 ft 424 kts 223°
2026-05-05 03:41 53.34654 7.00912 35992 ft 424 kts 223°
2026-05-05 03:41 53.30670 6.93674 36002 ft 423 kts 229°
2026-05-05 03:42 53.26789 6.86306 35972 ft 423 kts 229°
2026-05-05 03:42 53.22902 6.78933 35969 ft 423 kts 229°
2026-05-05 03:43 53.19010 6.71569 35968 ft 423 kts 229°
2026-05-05 03:43 53.15184 6.64204 35966 ft 423 kts 230°
2026-05-05 03:44 53.11363 6.56721 35969 ft 425 kts 230°
2026-05-05 03:44 53.07530 6.49253 35965 ft 425 kts 230°
2026-05-05 03:45 53.03684 6.41784 35976 ft 425 kts 230°
2026-05-05 03:45 52.99859 6.34377 35977 ft 425 kts 230°
2026-05-05 03:46 52.96009 6.26943 35977 ft 425 kts 230°
2026-05-05 03:46 52.92162 6.19537 35977 ft 425 kts 230°
2026-05-05 03:47 52.88298 6.12123 35974 ft 425 kts 229°
2026-05-05 03:47 52.84435 6.04730 35970 ft 425 kts 230°
2026-05-05 03:48 52.80578 5.97371 35976 ft 427 kts 230°
2026-05-05 03:48 52.76692 5.89979 35974 ft 426 kts 230°
2026-05-05 03:49 52.72800 5.82596 35976 ft 426 kts 230°
2026-05-05 03:49 52.68903 5.75231 35974 ft 426 kts 230°
2026-05-05 03:50 52.65024 5.67919 35975 ft 426 kts 229°
2026-05-05 03:50 52.61127 5.60595 35963 ft 425 kts 229°
2026-05-05 03:51 52.57226 5.53286 35967 ft 425 kts 229°
2026-05-05 03:51 52.53324 5.45995 35972 ft 425 kts 229°
2026-05-05 03:52 52.49435 5.38750 35967 ft 426 kts 229°
2026-05-05 03:52 52.45529 5.31491 35966 ft 426 kts 229°
2026-05-05 03:53 52.41705 5.24403 35967 ft 426 kts 229°
2026-05-05 03:53 52.37863 5.17305 35965 ft 424 kts 229°
2026-05-05 03:54 52.33963 5.10382 35948 ft 424 kts 219°
2026-05-05 03:54 52.31473 5.07842 35973 ft 423 kts 207°
2026-05-05 03:54 52.28835 5.05652 35943 ft 427 kts 208°
2026-05-05 03:55 52.23539 5.01318 35971 ft 427 kts 207°
2026-05-05 03:55 52.18207 4.97063 35965 ft 427 kts 207°
2026-05-05 03:56 52.12907 4.92862 35962 ft 426 kts 207°
2026-05-05 03:56 52.07579 4.88651 35967 ft 426 kts 207°
2026-05-05 03:57 52.02272 4.84470 35957 ft 425 kts 207°
2026-05-05 03:57 51.96953 4.80290 35955 ft 425 kts 207°
2026-05-05 03:58 51.91688 4.76162 35952 ft 423 kts 207°
2026-05-05 03:58 51.86390 4.72020 35948 ft 422 kts 207°
2026-05-05 03:59 51.81104 4.67897 35959 ft 423 kts 207°
2026-05-05 03:59 51.75811 4.63777 35954 ft 423 kts 207°
2026-05-05 04:00 51.70547 4.59690 35942 ft 422 kts 207°
2026-05-05 04:00 51.65254 4.55596 35938 ft 422 kts 207°
2026-05-05 04:01 51.59964 4.51516 35935 ft 422 kts 207°
2026-05-05 04:01 51.54676 4.47449 35937 ft 422 kts 207°
2026-05-05 04:02 51.49414 4.43412 35938 ft 422 kts 207°
2026-05-05 04:02 51.44107 4.39351 35940 ft 423 kts 207°
2026-05-05 04:03 51.38793 4.35299 35938 ft 423 kts 207°
2026-05-05 04:03 51.33496 4.31272 35937 ft 423 kts 207°
2026-05-05 04:04 51.28222 4.27263 35936 ft 423 kts 207°
2026-05-05 04:04 51.22914 4.23239 35935 ft 422 kts 207°
2026-05-05 04:05 51.17624 4.19238 35935 ft 421 kts 206°
2026-05-05 04:05 51.12130 4.16002 35947 ft 423 kts 201°
2026-05-05 04:06 51.06613 4.12962 35934 ft 422 kts 201°
2026-05-05 04:06 51.01061 4.09923 35936 ft 422 kts 201°
2026-05-05 04:07 50.95500 4.06888 35935 ft 422 kts 201°
2026-05-05 04:07 50.89950 4.03867 35936 ft 422 kts 201°
2026-05-05 04:08 50.84535 4.00489 35946 ft 422 kts 204°
2026-05-05 04:08 50.79100 3.97013 35933 ft 420 kts 204°
2026-05-05 04:09 50.73704 3.93589 35929 ft 417 kts 203°
2026-05-05 04:09 50.68321 3.90183 35933 ft 417 kts 203°
2026-05-05 04:10 50.62948 3.86793 35924 ft 417 kts 203°
2026-05-05 04:10 50.57491 3.83928 35891 ft 419 kts 187°
2026-05-05 04:11 50.51662 3.84398 35893 ft 422 kts 178°
2026-05-05 04:11 50.45810 3.85299 35919 ft 423 kts 177°
2026-05-05 04:12 50.39972 3.86283 35915 ft 423 kts 177°
2026-05-05 04:12 50.34164 3.87277 35918 ft 422 kts 177°
2026-05-05 04:13 50.28357 3.88269 35903 ft 420 kts 177°
2026-05-05 04:13 50.22538 3.89260 35918 ft 420 kts 177°
2026-05-05 04:14 50.16773 3.90240 35912 ft 420 kts 177°
2026-05-05 04:14 50.10963 3.91226 35907 ft 419 kts 177°
2026-05-05 04:15 50.05176 3.92205 35902 ft 417 kts 177°
2026-05-05 04:15 49.99417 3.93178 35911 ft 418 kts 177°
2026-05-05 04:16 49.93640 3.94151 35903 ft 418 kts 177°
2026-05-05 04:16 49.87916 3.95113 35915 ft 417 kts 176°
2026-05-05 04:17 49.82151 3.96080 35901 ft 416 kts 176°
2026-05-05 04:17 49.76394 3.97045 35913 ft 416 kts 176°
2026-05-05 04:18 49.70633 3.98008 35900 ft 416 kts 176°
2026-05-05 04:18 49.64927 3.98961 35902 ft 415 kts 176°
2026-05-05 04:19 49.59190 3.99916 35895 ft 414 kts 176°
2026-05-05 04:19 49.53456 4.00868 35895 ft 414 kts 176°
2026-05-05 04:20 49.47726 4.01817 35906 ft 414 kts 176°
2026-05-05 04:20 49.42044 4.02755 35896 ft 413 kts 176°
2026-05-05 04:21 49.36337 4.03692 35906 ft 413 kts 176°
2026-05-05 04:21 49.30619 4.04495 35896 ft 411 kts 182°
2026-05-05 04:22 49.24900 4.04575 35905 ft 412 kts 181°
2026-05-05 04:22 49.19173 4.04752 35904 ft 411 kts 181°
2026-05-05 04:23 49.13510 4.04935 35895 ft 411 kts 181°
2026-05-05 04:23 49.07788 4.05083 35894 ft 411 kts 181°
2026-05-05 04:24 49.02071 4.05234 35895 ft 411 kts 181°
2026-05-05 04:25 48.93528 4.05460 35886 ft 411 kts 181°
2026-05-05 04:25 48.87825 4.05610 35886 ft 411 kts 181°
2026-05-05 04:26 48.82106 4.05760 35887 ft 411 kts 181°
2026-05-05 04:26 48.76392 4.05863 35884 ft 411 kts 181°
2026-05-05 04:27 48.70671 4.05948 35886 ft 411 kts 181°
2026-05-05 04:27 48.65008 4.06033 35886 ft 411 kts 181°
2026-05-05 04:28 48.59301 4.06119 35885 ft 411 kts 181°
2026-05-05 04:28 48.53656 4.05358 35902 ft 406 kts 193°
2026-05-05 04:29 48.48100 4.03621 35881 ft 408 kts 192°
2026-05-05 04:29 48.42577 4.01867 35885 ft 408 kts 193°
2026-05-05 04:30 48.37030 4.00099 35887 ft 408 kts 193°
2026-05-05 04:30 48.31476 3.98332 35882 ft 408 kts 192°
2026-05-05 04:31 48.25922 3.96573 35885 ft 408 kts 191°
2026-05-05 04:31 48.20342 3.95348 35886 ft 409 kts 189°
2026-05-05 04:32 48.14735 3.94095 35883 ft 408 kts 189°
2026-05-05 04:32 48.09123 3.92830 35878 ft 408 kts 189°
2026-05-05 04:33 48.03618 3.91002 35856 ft 406 kts 206°
2026-05-05 04:33 48.01302 3.88708 35873 ft 407 kts 220°
2026-05-05 04:33 47.99248 3.85772 35867 ft 411 kts 222°
2026-05-05 04:34 47.95221 3.79700 35870 ft 412 kts 223°
2026-05-05 04:34 47.91259 3.73567 35870 ft 412 kts 224°
2026-05-05 04:35 47.87301 3.67396 35866 ft 412 kts 224°
2026-05-05 04:35 47.83370 3.61274 35864 ft 412 kts 224°
2026-05-05 04:36 47.79420 3.55136 35862 ft 412 kts 224°
2026-05-05 04:36 47.75466 3.49004 35862 ft 412 kts 224°
2026-05-05 04:37 47.72124 3.42136 35842 ft 419 kts 246°
2026-05-05 04:37 47.70864 3.33642 35860 ft 428 kts 255°
2026-05-05 04:38 47.69816 3.24908 35854 ft 430 kts 256°
2026-05-05 04:38 47.68813 3.16180 35846 ft 430 kts 256°
2026-05-05 04:39 47.67810 3.07423 35849 ft 430 kts 256°
2026-05-05 04:39 47.66809 2.98734 35848 ft 430 kts 256°
2026-05-05 04:40 47.65795 2.89991 35858 ft 430 kts 256°
2026-05-05 04:40 47.64776 2.81265 35849 ft 430 kts 256°
2026-05-05 04:41 47.63748 2.72529 35850 ft 430 kts 256°
2026-05-05 04:41 47.62721 2.63857 35853 ft 430 kts 256°
2026-05-05 04:42 47.61680 2.55124 35856 ft 430 kts 256°
2026-05-05 04:42 47.60633 2.46400 35855 ft 431 kts 256°
2026-05-05 04:43 47.59581 2.37679 35849 ft 431 kts 255°
2026-05-05 04:43 47.57663 2.29481 35836 ft 416 kts 231°
2026-05-05 04:43 47.55756 2.26379 35852 ft 412 kts 217°
2026-05-05 04:44 47.53369 2.24091 35848 ft 409 kts 205°
2026-05-05 04:44 47.50724 2.22566 35821 ft 409 kts 193°
2026-05-05 04:44 47.47931 2.21820 35858 ft 409 kts 188°
2026-05-05 04:45 47.42255 2.20946 35838 ft 410 kts 185°
2026-05-05 04:45 47.36572 2.20370 35841 ft 410 kts 187°
2026-05-05 04:45 47.33865 2.19325 35821 ft 408 kts 203°
2026-05-05 04:46 47.31336 2.17423 35823 ft 412 kts 212°
2026-05-05 04:46 47.26624 2.12612 35832 ft 414 kts 212°
2026-05-05 04:47 47.21869 2.07889 35858 ft 413 kts 212°
2026-05-05 04:47 47.17914 2.03974 35854 ft 415 kts 212°
2026-05-05 04:48 47.12335 1.98463 35850 ft 416 kts 212°
2026-05-05 04:48 47.07521 1.93720 35848 ft 416 kts 212°
2026-05-05 04:49 47.02712 1.88991 35851 ft 416 kts 212°
2026-05-05 04:49 46.98710 1.85064 35857 ft 416 kts 212°
2026-05-05 04:50 46.93067 1.79720 35849 ft 417 kts 204°
2026-05-05 04:50 46.87823 1.76006 35848 ft 419 kts 204°
2026-05-05 04:51 46.83464 1.72931 35855 ft 419 kts 204°
2026-05-05 04:51 46.78212 1.69242 35856 ft 419 kts 204°
2026-05-05 04:52 46.72114 1.64970 35859 ft 419 kts 204°
2026-05-05 04:52 46.67711 1.61892 35874 ft 419 kts 204°
2026-05-05 04:53 46.62481 1.58244 35862 ft 420 kts 204°
2026-05-05 04:53 46.57211 1.54575 35862 ft 420 kts 204°
2026-05-05 04:54 46.51948 1.50918 35868 ft 420 kts 204°
2026-05-05 04:54 46.46670 1.47253 35875 ft 421 kts 204°
2026-05-05 04:55 46.41428 1.43609 35876 ft 420 kts 204°
2026-05-05 04:55 46.36155 1.39951 35879 ft 420 kts 204°
2026-05-05 04:56 46.30875 1.36297 35883 ft 420 kts 204°
2026-05-05 04:56 46.25609 1.32659 35883 ft 420 kts 204°
2026-05-05 04:57 46.20364 1.29045 35892 ft 420 kts 204°
2026-05-05 04:57 46.15085 1.25414 35901 ft 420 kts 204°
2026-05-05 04:58 46.09805 1.21791 35900 ft 420 kts 204°
2026-05-05 04:58 46.04538 1.18184 35933 ft 420 kts 204°
2026-05-05 04:59 45.99249 1.14569 35914 ft 421 kts 204°
2026-05-05 04:59 45.93993 1.10985 35914 ft 421 kts 204°
2026-05-05 05:00 45.88697 1.07382 35910 ft 421 kts 204°
2026-05-05 05:00 45.83409 1.03789 35910 ft 421 kts 204°
2026-05-05 05:01 45.78497 0.99242 35919 ft 423 kts 214°
2026-05-05 05:01 45.73781 0.94297 35914 ft 423 kts 214°
2026-05-05 05:02 45.69044 0.89308 35919 ft 423 kts 214°
2026-05-05 05:02 45.64317 0.84337 35916 ft 423 kts 214°
2026-05-05 05:03 45.59579 0.79365 35919 ft 423 kts 214°
2026-05-05 05:03 45.54860 0.74422 35922 ft 425 kts 215°
2026-05-05 05:04 45.50091 0.69439 35931 ft 425 kts 215°
2026-05-05 05:04 45.45318 0.64451 35932 ft 425 kts 215°
2026-05-05 05:05 45.40557 0.59484 35931 ft 425 kts 215°
2026-05-05 05:05 45.35815 0.54547 35932 ft 425 kts 215°
2026-05-05 05:06 45.31040 0.49588 35928 ft 425 kts 215°
2026-05-05 05:06 45.26262 0.44636 35932 ft 425 kts 215°
2026-05-05 05:07 45.21490 0.39699 35936 ft 425 kts 215°
2026-05-05 05:07 45.16732 0.34789 35935 ft 427 kts 215°
2026-05-05 05:08 45.11920 0.29833 35938 ft 427 kts 215°
2026-05-05 05:08 45.07110 0.24890 35938 ft 427 kts 215°
2026-05-05 05:09 45.02302 0.19959 35938 ft 428 kts 215°
2026-05-05 05:09 44.97487 0.15027 35939 ft 427 kts 216°
2026-05-05 05:10 44.92721 0.10153 35946 ft 426 kts 216°
2026-05-05 05:10 44.87918 0.05251 35947 ft 426 kts 216°
2026-05-05 05:11 44.83122 0.00366 35952 ft 426 kts 216°
2026-05-05 05:11 44.78307 -0.04528 35960 ft 428 kts 216°
2026-05-05 05:12 44.73511 -0.09392 35956 ft 428 kts 216°
2026-05-05 05:12 44.68686 -0.14277 35959 ft 428 kts 216°
2026-05-05 05:13 44.64063 -0.19535 35965 ft 428 kts 219°
2026-05-05 05:13 44.59447 -0.24784 35958 ft 427 kts 219°
2026-05-05 05:14 44.54855 -0.29975 35962 ft 427 kts 219°
2026-05-05 05:14 44.50232 -0.35189 35968 ft 427 kts 218°
2026-05-05 05:15 44.45605 -0.40398 35965 ft 427 kts 218°
2026-05-05 05:15 44.40988 -0.45585 35958 ft 426 kts 219°
2026-05-05 05:16 44.36422 -0.50702 35974 ft 424 kts 219°
2026-05-05 05:16 44.31808 -0.55863 35975 ft 425 kts 219°
2026-05-05 05:17 44.27199 -0.61009 35970 ft 424 kts 219°
2026-05-05 05:17 44.22592 -0.66142 35975 ft 425 kts 219°
2026-05-05 05:18 44.18068 -0.71333 35977 ft 423 kts 220°
2026-05-05 05:18 44.13559 -0.76600 35994 ft 423 kts 220°
2026-05-05 05:19 44.09030 -0.81867 35980 ft 425 kts 220°
2026-05-05 05:19 44.04495 -0.87130 35973 ft 425 kts 220°
2026-05-05 05:20 43.99958 -0.92384 35972 ft 423 kts 220°
2026-05-05 05:20 43.95473 -0.97567 35975 ft 422 kts 220°
2026-05-05 05:21 43.90873 -1.02647 35981 ft 423 kts 218°
2026-05-05 05:21 43.86204 -1.07574 35971 ft 423 kts 218°
2026-05-05 05:22 43.81531 -1.12520 35963 ft 422 kts 218°
2026-05-05 05:22 43.76906 -1.17405 35972 ft 421 kts 218°
2026-05-05 05:23 43.72327 -1.22464 35963 ft 421 kts 220°
2026-05-05 05:23 43.67772 -1.27564 35968 ft 421 kts 220°
2026-05-05 05:24 43.63222 -1.32637 35977 ft 421 kts 220°
2026-05-05 05:24 43.58697 -1.37673 35985 ft 419 kts 220°
2026-05-05 05:25 43.54163 -1.42708 35994 ft 419 kts 220°
2026-05-05 05:25 43.49612 -1.47714 35989 ft 419 kts 216°
2026-05-05 05:25 43.47029 -1.49564 35974 ft 421 kts 200°
2026-05-05 05:26 43.44157 -1.50325 36003 ft 427 kts 185°
2026-05-05 05:26 43.38201 -1.50053 35993 ft 433 kts 181°
2026-05-05 05:27 43.32192 -1.49520 35997 ft 433 kts 180°
2026-05-05 05:27 43.23189 -1.48137 36005 ft 435 kts 177°
2026-05-05 05:28 43.17200 -1.47084 35998 ft 434 kts 177°
2026-05-05 05:28 43.11250 -1.46050 36005 ft 434 kts 177°
2026-05-05 05:29 43.05358 -1.46290 36006 ft 418 kts 202°
2026-05-05 05:29 43.00135 -1.49705 35992 ft 417 kts 211°
2026-05-05 05:30 42.95082 -1.53477 36027 ft 413 kts 212°
2026-05-05 05:30 42.90085 -1.57313 36021 ft 416 kts 212°
2026-05-05 05:31 42.85047 -1.61204 35999 ft 416 kts 212°
2026-05-05 05:31 42.80013 -1.65088 35991 ft 416 kts 212°
2026-05-05 05:32 42.74988 -1.68960 35992 ft 416 kts 212°
2026-05-05 05:32 42.69818 -1.72513 36014 ft 418 kts 209°
2026-05-05 05:33 42.64650 -1.75996 35998 ft 417 kts 209°
2026-05-05 05:33 42.59457 -1.79505 35989 ft 417 kts 210°
2026-05-05 05:34 42.54277 -1.83000 36002 ft 415 kts 210°
2026-05-05 05:34 42.49124 -1.86471 36009 ft 415 kts 210°
2026-05-05 05:35 42.43986 -1.89925 36009 ft 415 kts 210°
2026-05-05 05:35 42.38801 -1.93382 35992 ft 417 kts 210°
2026-05-05 05:36 42.33617 -1.96835 36001 ft 414 kts 210°
2026-05-05 05:36 42.28463 -2.00267 36009 ft 414 kts 210°
2026-05-05 05:37 42.23326 -2.03669 36008 ft 414 kts 210°
2026-05-05 05:37 42.18154 -2.07088 36012 ft 414 kts 210°
2026-05-05 05:38 42.12997 -2.10495 36009 ft 411 kts 210°
2026-05-05 05:38 42.07863 -2.13881 36016 ft 411 kts 210°
2026-05-05 05:39 42.02766 -2.17235 36020 ft 411 kts 210°
2026-05-05 05:39 41.97624 -2.20615 36010 ft 411 kts 210°
2026-05-05 05:40 41.92506 -2.23972 36035 ft 407 kts 211°
2026-05-05 05:40 41.87435 -2.27292 36016 ft 405 kts 211°
2026-05-05 05:41 41.82407 -2.30578 36023 ft 407 kts 211°
2026-05-05 05:41 41.77298 -2.33911 36020 ft 409 kts 210°
2026-05-05 05:42 41.72191 -2.37237 36016 ft 407 kts 211°
2026-05-05 05:42 41.67116 -2.40537 36020 ft 406 kts 211°
2026-05-05 05:43 41.62088 -2.43800 36019 ft 406 kts 211°
2026-05-05 05:43 41.57010 -2.47090 36026 ft 406 kts 211°
2026-05-05 05:44 41.51925 -2.50380 36001 ft 405 kts 211°
2026-05-05 05:44 41.46873 -2.53639 36019 ft 402 kts 211°
2026-05-05 05:45 41.41870 -2.56862 36021 ft 402 kts 211°
2026-05-05 05:45 41.36835 -2.60101 36028 ft 402 kts 211°
2026-05-05 05:46 41.31532 -2.62566 35963 ft 417 kts 191°
2026-05-05 05:46 41.25650 -2.62305 36002 ft 425 kts 185°
2026-05-05 05:47 41.19784 -2.61843 36017 ft 425 kts 184°
2026-05-05 05:47 41.13894 -2.61326 36003 ft 425 kts 184°
2026-05-05 05:48 41.07989 -2.60802 36001 ft 425 kts 185°
2026-05-05 05:48 41.02093 -2.60277 35998 ft 424 kts 185°
2026-05-05 05:49 40.96206 -2.59749 36007 ft 424 kts 185°
2026-05-05 05:49 40.90372 -2.59222 36010 ft 424 kts 185°
2026-05-05 05:50 40.84484 -2.58691 35990 ft 424 kts 185°
2026-05-05 05:50 40.78596 -2.58161 35997 ft 424 kts 185°
2026-05-05 05:51 40.72708 -2.57632 36002 ft 424 kts 185°
2026-05-05 05:51 40.66868 -2.57108 35998 ft 424 kts 185°
2026-05-05 05:52 40.60992 -2.56582 35995 ft 424 kts 185°
2026-05-05 05:52 40.55106 -2.56056 36001 ft 424 kts 185°
2026-05-05 05:53 40.49219 -2.55531 36002 ft 424 kts 185°
2026-05-05 05:53 40.43380 -2.55011 35977 ft 424 kts 185°
2026-05-05 05:54 40.37558 -2.54829 35976 ft 407 kts 199°
2026-05-05 05:54 40.32279 -2.57074 35983 ft 399 kts 207°
2026-05-05 05:55 40.27074 -2.59583 35999 ft 399 kts 208°
2026-05-05 05:55 40.21930 -2.62140 35954 ft 398 kts 208°
2026-05-05 05:56 40.16762 -2.64727 36006 ft 399 kts 208°
2026-05-05 05:56 40.11576 -2.67322 36009 ft 399 kts 208°
2026-05-05 05:57 40.06393 -2.69910 36012 ft 400 kts 208°
2026-05-05 05:57 40.01232 -2.72484 36005 ft 400 kts 208°
2026-05-05 05:58 39.96042 -2.75067 36001 ft 400 kts 208°
2026-05-05 05:58 39.90916 -2.77616 36007 ft 400 kts 208°
2026-05-05 05:59 39.85735 -2.80183 36012 ft 400 kts 208°
2026-05-05 05:59 39.80569 -2.82746 36007 ft 400 kts 207°
2026-05-05 06:00 39.75366 -2.85321 35985 ft 400 kts 208°
2026-05-05 06:00 39.70171 -2.87886 36008 ft 399 kts 208°
2026-05-05 06:01 39.64991 -2.90438 36014 ft 399 kts 208°
2026-05-05 06:01 39.59828 -2.92983 36016 ft 399 kts 208°
2026-05-05 06:02 39.54647 -2.95537 36014 ft 399 kts 208°
2026-05-05 06:02 39.49470 -2.98085 36010 ft 397 kts 208°
2026-05-05 06:03 39.44318 -3.00616 36020 ft 397 kts 208°
2026-05-05 06:03 39.39186 -3.03130 36013 ft 397 kts 208°
2026-05-05 06:04 39.34032 -3.05643 36029 ft 397 kts 208°
2026-05-05 06:04 39.28885 -3.08149 35996 ft 398 kts 208°
2026-05-05 06:05 39.23723 -3.10658 36016 ft 396 kts 208°
2026-05-05 06:05 39.18582 -3.13153 36018 ft 396 kts 208°
2026-05-05 06:06 39.13470 -3.15630 36018 ft 396 kts 208°
2026-05-05 06:06 39.08313 -3.18125 36018 ft 396 kts 208°
2026-05-05 06:07 39.03170 -3.20610 36017 ft 395 kts 208°
2026-05-05 06:07 38.98047 -3.23080 36017 ft 394 kts 208°
2026-05-05 06:08 38.92945 -3.25536 36019 ft 394 kts 208°
2026-05-05 06:08 38.87805 -3.28005 36018 ft 394 kts 208°
2026-05-05 06:09 38.82663 -3.30474 35982 ft 395 kts 209°
2026-05-05 06:09 38.77501 -3.32947 36025 ft 396 kts 209°
2026-05-05 06:10 38.72389 -3.35392 36021 ft 396 kts 208°
2026-05-05 06:10 38.67230 -3.37856 36026 ft 396 kts 208°
2026-05-05 06:11 38.62067 -3.40318 36021 ft 396 kts 208°
2026-05-05 06:11 38.56990 -3.42736 36018 ft 397 kts 208°
2026-05-05 06:12 38.51821 -3.45194 36018 ft 397 kts 208°
2026-05-05 06:12 38.46651 -3.47648 36027 ft 397 kts 208°
2026-05-05 06:13 38.41489 -3.50095 36021 ft 397 kts 208°
2026-05-05 06:13 38.36333 -3.52535 36036 ft 397 kts 208°
2026-05-05 06:14 38.31201 -3.54960 36027 ft 397 kts 208°
2026-05-05 06:14 38.26033 -3.57399 36024 ft 397 kts 208°
2026-05-05 06:15 38.20858 -3.59837 36025 ft 397 kts 208°
2026-05-05 06:15 38.15730 -3.62264 36022 ft 395 kts 211°
2026-05-05 06:16 38.10760 -3.65135 36019 ft 394 kts 212°
2026-05-05 06:16 38.05780 -3.67966 36022 ft 394 kts 212°
2026-05-05 06:17 38.00788 -3.70787 36020 ft 394 kts 212°
2026-05-05 06:17 37.95776 -3.73613 36021 ft 394 kts 212°
2026-05-05 06:18 37.90799 -3.76414 36030 ft 394 kts 212°
2026-05-05 06:18 37.85787 -3.79231 36018 ft 394 kts 211°
2026-05-05 06:19 37.80787 -3.82037 36035 ft 395 kts 211°
2026-05-05 06:19 37.75752 -3.84860 36036 ft 396 kts 211°
2026-05-05 06:20 37.70752 -3.87657 36026 ft 396 kts 211°
2026-05-05 06:20 37.65719 -3.90470 36037 ft 396 kts 211°
2026-05-05 06:21 37.60694 -3.93273 36035 ft 396 kts 211°
2026-05-05 06:21 37.55655 -3.96081 36035 ft 396 kts 211°
2026-05-05 06:22 37.50653 -3.98863 36036 ft 395 kts 211°
2026-05-05 06:22 37.45617 -4.01660 36042 ft 396 kts 211°
2026-05-05 06:23 37.40581 -4.04454 36004 ft 396 kts 210°
2026-05-05 06:23 37.35541 -4.07245 36044 ft 397 kts 210°
2026-05-05 06:24 37.30521 -4.10021 36042 ft 397 kts 210°
2026-05-05 06:24 37.25477 -4.12806 36037 ft 396 kts 210°
2026-05-05 06:25 37.20417 -4.15596 36041 ft 397 kts 210°
2026-05-05 06:25 37.15362 -4.18380 35997 ft 397 kts 210°
2026-05-05 06:26 37.10342 -4.21140 36032 ft 399 kts 210°
2026-05-05 06:26 37.05267 -4.23926 36016 ft 398 kts 210°
2026-05-05 06:27 36.97655 -4.28097 36032 ft 398 kts 210°
2026-05-05 06:28 36.92581 -4.30873 36009 ft 398 kts 210°
2026-05-05 06:28 36.87550 -4.33621 36000 ft 400 kts 209°
2026-05-05 06:29 36.82440 -4.36410 36033 ft 401 kts 210°
2026-05-05 06:29 36.77730 -4.39924 36033 ft 395 kts 217°
2026-05-05 06:30 36.73101 -4.43592 36012 ft 394 kts 217°
2026-05-05 06:30 36.68510 -4.47238 36021 ft 395 kts 217°
2026-05-05 06:31 36.63882 -4.50910 36012 ft 395 kts 217°
2026-05-05 06:31 36.59234 -4.54593 36023 ft 396 kts 217°
2026-05-05 06:32 36.54581 -4.58274 35998 ft 396 kts 217°
2026-05-05 06:32 36.49927 -4.61951 36000 ft 397 kts 217°
2026-05-05 06:33 36.45307 -4.65596 35997 ft 397 kts 217°
2026-05-05 06:33 36.40643 -4.69270 35970 ft 397 kts 217°
2026-05-05 06:34 36.35962 -4.72952 36010 ft 399 kts 217°
2026-05-05 06:34 36.31273 -4.76635 36003 ft 399 kts 217°
2026-05-05 06:35 36.26624 -4.80281 36003 ft 399 kts 217°
2026-05-05 06:35 36.21933 -4.83955 36010 ft 399 kts 217°
2026-05-05 06:36 36.17243 -4.87624 36009 ft 399 kts 217°
2026-05-05 06:36 36.12563 -4.91320 36003 ft 400 kts 217°
2026-05-05 06:37 36.07894 -4.95014 36018 ft 401 kts 217°
2026-05-05 06:37 36.03195 -4.98728 36020 ft 402 kts 217°
2026-05-05 06:38 35.98475 -5.02451 36018 ft 402 kts 217°
2026-05-05 06:38 35.93759 -5.06166 36023 ft 402 kts 217°
2026-05-05 06:39 35.89067 -5.09857 36023 ft 402 kts 217°
2026-05-05 06:39 35.84351 -5.13563 36019 ft 402 kts 217°
2026-05-05 06:40 35.79900 -5.17672 36022 ft 400 kts 221°
2026-05-05 06:40 35.75468 -5.21783 36021 ft 400 kts 221°
2026-05-05 06:41 35.71044 -5.25857 36019 ft 400 kts 221°
2026-05-05 06:41 35.66583 -5.29956 36025 ft 400 kts 221°
2026-05-05 06:42 35.62128 -5.34043 36015 ft 400 kts 221°
2026-05-05 06:42 35.57662 -5.38134 36024 ft 401 kts 221°
2026-05-05 06:43 35.53227 -5.42192 36019 ft 400 kts 221°
2026-05-05 06:43 35.48797 -5.46239 36018 ft 400 kts 221°
2026-05-05 06:44 35.44355 -5.50292 36040 ft 400 kts 221°
2026-05-05 06:44 35.39883 -5.54366 36032 ft 400 kts 220°
2026-05-05 06:45 35.35435 -5.58413 36031 ft 401 kts 220°
2026-05-05 06:45 35.30976 -5.62464 36047 ft 401 kts 220°
2026-05-05 06:46 35.26490 -5.66534 36050 ft 402 kts 220°
2026-05-05 06:46 35.22044 -5.70561 36061 ft 402 kts 220°
2026-05-05 06:47 35.17593 -5.74588 36073 ft 402 kts 220°
2026-05-05 06:47 35.13139 -5.78611 36062 ft 402 kts 220°
2026-05-05 06:48 35.08636 -5.82673 36040 ft 403 kts 220°
2026-05-05 06:48 35.04160 -5.86706 36062 ft 404 kts 220°
2026-05-05 06:49 34.99646 -5.90767 36065 ft 403 kts 220°
2026-05-05 06:49 34.95128 -5.94825 36055 ft 403 kts 220°
2026-05-05 06:50 34.90606 -5.98882 36057 ft 403 kts 220°
2026-05-05 06:50 34.86166 -6.02860 36056 ft 403 kts 220°
2026-05-05 06:51 34.81653 -6.06897 36046 ft 403 kts 220°
2026-05-05 06:51 34.77145 -6.10924 36050 ft 404 kts 220°
2026-05-05 06:52 34.72649 -6.14935 36054 ft 404 kts 220°
2026-05-05 06:52 34.68218 -6.18882 36056 ft 405 kts 220°
2026-05-05 06:53 34.63684 -6.22917 36057 ft 404 kts 220°
2026-05-05 06:53 34.59144 -6.26950 36051 ft 404 kts 220°
2026-05-05 06:54 34.54705 -6.30889 36048 ft 404 kts 220°
2026-05-05 06:54 34.50172 -6.34906 36045 ft 403 kts 220°
2026-05-05 06:55 34.45642 -6.38913 36050 ft 403 kts 220°
2026-05-05 06:55 34.41139 -6.42892 36049 ft 404 kts 220°
2026-05-05 06:56 34.36634 -6.46868 36069 ft 404 kts 220°
2026-05-05 06:56 34.32120 -6.50845 36058 ft 405 kts 220°
2026-05-05 06:57 34.27653 -6.54776 36038 ft 403 kts 220°
2026-05-05 06:57 34.23133 -6.58748 36059 ft 402 kts 220°
2026-05-05 06:58 34.18616 -6.62714 36067 ft 402 kts 220°
2026-05-05 06:58 34.14139 -6.66639 36075 ft 402 kts 220°
2026-05-05 06:59 34.09660 -6.70560 36074 ft 402 kts 220°
2026-05-05 06:59 34.05299 -6.74357 36072 ft 403 kts 218°
2026-05-05 07:00 34.00674 -6.78142 36072 ft 401 kts 219°
2026-05-05 07:00 33.96076 -6.81923 36071 ft 399 kts 219°
2026-05-05 07:01 33.91490 -6.85693 36074 ft 400 kts 219°
2026-05-05 07:01 33.86894 -6.89467 36065 ft 400 kts 219°
2026-05-05 07:02 33.82334 -6.93206 36061 ft 400 kts 219°
2026-05-05 07:02 33.77735 -6.96972 36059 ft 400 kts 218°
2026-05-05 07:03 33.73208 -7.00674 36054 ft 398 kts 219°
2026-05-05 07:03 33.68664 -7.04386 36067 ft 397 kts 219°
2026-05-05 07:04 33.64099 -7.08109 36073 ft 397 kts 219°
2026-05-05 07:04 33.59542 -7.11822 36075 ft 397 kts 219°
2026-05-05 07:05 33.54964 -7.15546 36076 ft 397 kts 219°
2026-05-05 07:05 33.50423 -7.19236 36071 ft 397 kts 219°
2026-05-05 07:06 33.45851 -7.22947 36060 ft 397 kts 219°
2026-05-05 07:06 33.41301 -7.26633 36072 ft 395 kts 219°
2026-05-05 07:07 33.36798 -7.30277 36068 ft 395 kts 219°
2026-05-05 07:07 33.32289 -7.33922 36073 ft 396 kts 219°
2026-05-05 07:08 33.27765 -7.37575 36071 ft 396 kts 219°
2026-05-05 07:08 33.23257 -7.41210 36074 ft 395 kts 219°
2026-05-05 07:09 33.18706 -7.44875 36082 ft 396 kts 219°
2026-05-05 07:09 33.14168 -7.48517 36078 ft 396 kts 218°
2026-05-05 07:09 33.11647 -7.49909 36057 ft 407 kts 202°
2026-05-05 07:10 33.08801 -7.50403 36089 ft 421 kts 189°
2026-05-05 07:10 33.02916 -7.50508 36075 ft 424 kts 188°
2026-05-05 07:11 32.97021 -7.50517 36065 ft 424 kts 187°
2026-05-05 07:11 32.91271 -7.50486 35912 ft 404 kts 188°
2026-05-05 07:11 32.88471 -7.50471 35464 ft 401 kts 188°
2026-05-05 07:12 32.85681 -7.50455 34914 ft 401 kts 188°
2026-05-05 07:12 32.82888 -7.50439 34367 ft 401 kts 188°
2026-05-05 07:12 32.80103 -7.50422 33877 ft 399 kts 188°
2026-05-05 07:12 32.77337 -7.50405 33366 ft 397 kts 188°
2026-05-05 07:13 32.74588 -7.50389 32877 ft 394 kts 188°
2026-05-05 07:13 32.71875 -7.50373 32438 ft 390 kts 188°
2026-05-05 07:13 32.69205 -7.50357 31994 ft 388 kts 188°
2026-05-05 07:13 32.66511 -7.50340 31518 ft 385 kts 188°
2026-05-05 07:14 32.63841 -7.50318 31043 ft 384 kts 188°
2026-05-05 07:14 32.61195 -7.50300 30574 ft 383 kts 188°
2026-05-05 07:14 32.58557 -7.50281 30167 ft 380 kts 188°
2026-05-05 07:14 32.55920 -7.50263 29711 ft 377 kts 188°
2026-05-05 07:15 32.53321 -7.50245 29273 ft 374 kts 188°
2026-05-05 07:15 32.50729 -7.50227 28864 ft 370 kts 188°
2026-05-05 07:15 32.48163 -7.50209 28464 ft 367 kts 188°
2026-05-05 07:15 32.45680 -7.50192 28077 ft 364 kts 188°
2026-05-05 07:16 32.43158 -7.50175 27684 ft 361 kts 188°
2026-05-05 07:16 32.40655 -7.50158 27305 ft 358 kts 188°
2026-05-05 07:16 32.38175 -7.50141 26902 ft 355 kts 188°
2026-05-05 07:16 32.35712 -7.50124 26545 ft 352 kts 188°
2026-05-05 07:17 32.33271 -7.50108 26176 ft 350 kts 188°
2026-05-05 07:17 32.30852 -7.50091 25814 ft 348 kts 188°
2026-05-05 07:17 32.28439 -7.50074 25454 ft 346 kts 188°
2026-05-05 07:17 32.26074 -7.50058 25101 ft 344 kts 188°
2026-05-05 07:18 32.23686 -7.50042 24740 ft 342 kts 188°
2026-05-05 07:18 32.21318 -7.50026 24389 ft 341 kts 188°
2026-05-05 07:18 32.18955 -7.50010 24036 ft 339 kts 188°
2026-05-05 07:18 32.16596 -7.49994 23678 ft 338 kts 187°
2026-05-05 07:19 32.14256 -7.49978 23280 ft 337 kts 187°
2026-05-05 07:19 32.11951 -7.49961 22875 ft 335 kts 188°
2026-05-05 07:19 32.09688 -7.50181 22474 ft 318 kts 205°
2026-05-05 07:19 32.07770 -7.51261 22144 ft 297 kts 224°
2026-05-05 07:20 32.06273 -7.52821 21912 ft 287 kts 229°
2026-05-05 07:20 32.04852 -7.54435 21634 ft 282 kts 231°
2026-05-05 07:20 32.03492 -7.56067 21355 ft 284 kts 232°
2026-05-05 07:20 32.02117 -7.57773 21061 ft 289 kts 232°
2026-05-05 07:21 32.00753 -7.59497 20760 ft 292 kts 232°
2026-05-05 07:21 31.99373 -7.61259 20452 ft 292 kts 232°
2026-05-05 07:21 31.98008 -7.63013 20151 ft 291 kts 232°
2026-05-05 07:21 31.96642 -7.64776 19847 ft 291 kts 232°
2026-05-05 07:22 31.95284 -7.66533 19556 ft 291 kts 232°
2026-05-05 07:22 31.93921 -7.68298 19252 ft 290 kts 232°
2026-05-05 07:22 31.92616 -7.69988 18962 ft 290 kts 232°
2026-05-05 07:22 31.91257 -7.71747 18665 ft 290 kts 232°
2026-05-05 07:23 31.89909 -7.73491 18352 ft 288 kts 232°
2026-05-05 07:23 31.88586 -7.75203 18022 ft 285 kts 232°
2026-05-05 07:23 31.87258 -7.76920 17711 ft 282 kts 232°
2026-05-05 07:23 31.85946 -7.78618 17413 ft 279 kts 232°
2026-05-05 07:24 31.84707 -7.80343 17060 ft 273 kts 243°
2026-05-05 07:24 31.84097 -7.82390 16789 ft 263 kts 264°
2026-05-05 07:24 31.83970 -7.84526 16541 ft 262 kts 267°
2026-05-05 07:24 31.83888 -7.86687 16264 ft 268 kts 268°
2026-05-05 07:25 31.83836 -7.88899 15972 ft 272 kts 269°
2026-05-05 07:25 31.83805 -7.91119 15703 ft 272 kts 269°
2026-05-05 07:25 31.83783 -7.93287 15430 ft 269 kts 270°
2026-05-05 07:25 31.83769 -7.95448 15161 ft 266 kts 270°
2026-05-05 07:26 31.83759 -7.97611 14887 ft 262 kts 270°
2026-05-05 07:26 31.83752 -7.99741 14626 ft 259 kts 270°
2026-05-05 07:26 31.83745 -8.01844 14360 ft 256 kts 270°
2026-05-05 07:26 31.83739 -8.03925 14093 ft 253 kts 270°
2026-05-05 07:27 31.83733 -8.05990 13833 ft 251 kts 270°
2026-05-05 07:27 31.83727 -8.08027 13537 ft 249 kts 270°
2026-05-05 07:27 31.83721 -8.10063 13273 ft 255 kts 270°
2026-05-05 07:27 31.83714 -8.12149 13001 ft 260 kts 270°
2026-05-05 07:28 31.83707 -8.14275 12724 ft 262 kts 270°
2026-05-05 07:28 31.83699 -8.16405 12447 ft 262 kts 270°
2026-05-05 07:28 31.83691 -8.18543 12170 ft 262 kts 270°
2026-05-05 07:28 31.83683 -8.20674 11903 ft 262 kts 270°
2026-05-05 07:29 31.83675 -8.22793 11626 ft 263 kts 270°
2026-05-05 07:29 31.83666 -8.24942 11346 ft 263 kts 270°
2026-05-05 07:29 31.83656 -8.27098 11068 ft 264 kts 270°
2026-05-05 07:29 31.83646 -8.29250 10790 ft 263 kts 270°
2026-05-05 07:30 31.83636 -8.31394 10501 ft 261 kts 269°
2026-05-05 07:30 31.83616 -8.35629 9996 ft 256 kts 270°
2026-05-05 07:30 31.83425 -8.37690 9681 ft 255 kts 252°
2026-05-05 07:31 31.82505 -8.39451 9358 ft 257 kts 227°
2026-05-05 07:31 31.81037 -8.40598 9097 ft 259 kts 208°
2026-05-05 07:31 31.79410 -8.41473 8853 ft 256 kts 208°
2026-05-05 07:31 31.77827 -8.42316 8676 ft 244 kts 207°
2026-05-05 07:32 31.76315 -8.43111 8429 ft 233 kts 207°
2026-05-05 07:32 31.74893 -8.43852 8204 ft 213 kts 207°
2026-05-05 07:32 31.73631 -8.44509 8047 ft 184 kts 207°
2026-05-05 07:32 31.72537 -8.45076 7866 ft 161 kts 207°
2026-05-05 07:33 31.71575 -8.45571 7686 ft 143 kts 207°
2026-05-05 07:33 31.70688 -8.46029 7616 ft 144 kts 206°
2026-05-05 07:33 31.69742 -8.46515 7567 ft 152 kts 206°
2026-05-05 07:33 31.68756 -8.47023 7459 ft 156 kts 206°
2026-05-05 07:34 31.67757 -8.47536 7321 ft 157 kts 205°
2026-05-05 07:34 31.66741 -8.48001 7131 ft 158 kts 193°
2026-05-05 07:34 31.65665 -8.47839 6891 ft 159 kts 156°
2026-05-05 07:34 31.64840 -8.47001 6665 ft 159 kts 123°
2026-05-05 07:35 31.64470 -8.45789 6486 ft 158 kts 102°
2026-05-05 07:35 31.64288 -8.44536 6301 ft 157 kts 99°
2026-05-05 07:35 31.64146 -8.43273 6093 ft 155 kts 97°
2026-05-05 07:35 31.64037 -8.42016 5899 ft 154 kts 96°
2026-05-05 07:36 31.63931 -8.40772 5759 ft 153 kts 95°
2026-05-05 07:36 31.63825 -8.39530 5659 ft 153 kts 95°
2026-05-05 07:36 31.63720 -8.38296 5585 ft 152 kts 95°
2026-05-05 07:36 31.63614 -8.37063 5508 ft 151 kts 95°
2026-05-05 07:37 31.63511 -8.35843 5402 ft 150 kts 95°
2026-05-05 07:37 31.63408 -8.34637 5317 ft 150 kts 95°
2026-05-05 07:37 31.63303 -8.33416 5231 ft 151 kts 95°
2026-05-05 07:37 31.63196 -8.32191 5164 ft 151 kts 95°
2026-05-05 07:38 31.63090 -8.30968 5072 ft 150 kts 95°
2026-05-05 07:38 31.62984 -8.29751 4994 ft 150 kts 95°
2026-05-05 07:38 31.62876 -8.28538 4906 ft 149 kts 95°
2026-05-05 07:38 31.62770 -8.27325 4810 ft 149 kts 95°
2026-05-05 07:39 31.62665 -8.26117 4718 ft 149 kts 95°
2026-05-05 07:39 31.62559 -8.24910 4572 ft 149 kts 95°
2026-05-05 07:39 31.62454 -8.23722 4344 ft 148 kts 95°
2026-05-05 07:39 31.62348 -8.22520 4155 ft 147 kts 95°
2026-05-05 07:40 31.62243 -8.21325 4016 ft 148 kts 95°
2026-05-05 07:40 31.62137 -8.20127 3902 ft 148 kts 95°
2026-05-05 07:40 31.62032 -8.18932 3746 ft 148 kts 95°
2026-05-05 07:40 31.61927 -8.17736 3604 ft 147 kts 95°
2026-05-05 07:41 31.61822 -8.16543 3436 ft 146 kts 95°
2026-05-05 07:41 31.61755 -8.15757 3296 ft 146 kts 95°
2026-05-05 07:41 31.61618 -8.14187 3072 ft 146 kts 95°
2026-05-05 07:41 31.61513 -8.13003 2872 ft 145 kts 95°
2026-05-05 07:42 31.61409 -8.11826 2679 ft 144 kts 95°
2026-05-05 07:42 31.61312 -8.10723 2497 ft 144 kts 95°
2026-05-05 07:42 31.61220 -8.09673 2312 ft 145 kts 95°
2026-05-05 07:42 31.61153 -8.08906 2183 ft 147 kts 96°
2026-05-05 07:43 31.61013 -8.07314 1903 ft 149 kts 96°
2026-05-05 07:43 31.60906 -8.06098 1710 ft 150 kts 96°
2026-05-05 07:43 31.60801 -8.04889 1516 ft 148 kts 96°
2026-05-05 07:43 31.60711 -8.03905 1522 ft 90 kts 95°
2026-05-05 07:44 31.60670 -8.03407 1522 ft 47 kts 96°
2026-05-05 07:44 31.60636 -8.03259 1528 ft 8 kts 107°
2026-05-05 07:44 31.60620 -8.03225 1531 ft 3 kts 124°
2026-05-05 07:44 31.60604 -8.03197 1527 ft 5 kts 123°
2026-05-05 07:45 31.60572 -8.03140 1528 ft 8 kts 123°
2026-05-05 07:45 31.60533 -8.03077 1527 ft 11 kts 127°
2026-05-05 07:45 31.60480 -8.02996 1532 ft 14 kts 124°
2026-05-05 07:45 31.60457 -8.02926 1535 ft 14 kts 110°
2026-05-05 07:46 31.60407 -8.02844 1528 ft 14 kts 177°
2026-05-05 07:46 31.60369 -8.02845 1529 ft 5 kts 184°
2026-05-05 07:46 31.60353 -8.02846 1530 ft 2 kts 184°
2026-05-05 07:46 31.60340 -8.02848 1536 ft 1 kts 186°
2026-05-05 07:47 31.60339 -8.02848 1536 ft 0 kts 186°